Voltar ao catálogo

STARLINK-32152

AtivoComunicaçõesVLEO
NORAD 60275·PAYLOAD·🇺🇸 United States

Lançado Jul 27, 2024 de Cape Canaveral Space Force Station

Loading…

Próximas Passagens (próximas 24 horas)

TLE

AtualizadoSource: CelesTrak SupGP

Época: Sep 14, 2026, 22:15 UTC

1 60275C 24131W   26257.92756944  .00048336  00000+0  14281-2 0  2577
2 60275  53.1573 251.9283 0001261  96.5904 242.7952 15.34365676    17

Acompanhe STARLINK-32152 em tempo real com AllMySat

Download on the App Store